TimeCST,TemperatureF,Dew PointF,Humidity,Sea Level PressureIn,VisibilityMPH,Wind Direction,Wind SpeedMPH,Gust SpeedMPH,PrecipitationIn,Events,Conditions,WindDirDegrees,DateUTC
12:15 AM,17.6,10.4,73,29.93,10.0,West,3.5,-,N/A,,Overcast,280,2013-01-03 06:15:00
12:35 AM,17.6,10.4,73,29.92,10.0,West,3.5,-,N/A,,Overcast,280,2013-01-03 06:35:00
12:55 AM,17.6,10.4,73,29.92,10.0,WNW,4.6,-,N/A,,Overcast,300,2013-01-03 06:55:00
1:15 AM,17.6,12.2,79,29.91,10.0,West,4.6,-,N/A,,Overcast,280,2013-01-03 07:15:00
1:35 AM,17.6,12.2,79,29.91,10.0,WNW,5.8,-,N/A,,Overcast,290,2013-01-03 07:35:00
1:55 AM,17.6,12.2,79,29.91,7.0,West,4.6,-,N/A,,Overcast,280,2013-01-03 07:55:00
2:15 AM,17.6,12.2,79,29.92,7.0,WNW,6.9,-,N/A,,Overcast,290,2013-01-03 08:15:00
2:35 AM,17.6,12.2,79,29.92,5.0,WNW,4.6,-,N/A,Snow,Light Snow,290,2013-01-03 08:35:00
2:55 AM,17.6,12.2,79,29.92,7.0,WNW,4.6,-,N/A,Snow,Light Snow,290,2013-01-03 08:55:00
3:15 AM,17.6,12.2,79,29.92,7.0,West,4.6,-,N/A,Snow,Light Snow,280,2013-01-03 09:15:00
3:35 AM,17.6,12.2,79,29.93,7.0,WNW,6.9,-,N/A,,Overcast,290,2013-01-03 09:35:00
3:55 AM,17.6,12.2,79,29.93,7.0,WNW,6.9,-,N/A,,Overcast,290,2013-01-03 09:55:00
4:15 AM,17.6,12.2,79,29.93,7.0,West,6.9,-,N/A,Snow,Light Snow,280,2013-01-03 10:15:00
4:35 AM,17.6,12.2,79,29.93,7.0,West,5.8,-,N/A,,Overcast,280,2013-01-03 10:35:00
4:55 AM,17.6,12.2,79,29.93,7.0,West,5.8,-,N/A,Snow,Light Snow,280,2013-01-03 10:55:00
5:15 AM,17.6,14.0,86,29.94,5.0,West,5.8,-,N/A,Snow,Light Snow,270,2013-01-03 11:15:00
5:35 AM,17.6,14.0,86,29.95,5.0,WNW,6.9,-,N/A,Snow,Light Snow,290,2013-01-03 11:35:00
5:55 AM,17.6,14.0,86,29.95,5.0,West,6.9,-,N/A,Snow,Light Snow,280,2013-01-03 11:55:00
6:15 AM,17.6,14.0,86,29.96,5.0,West,5.8,-,N/A,Snow,Light Snow,280,2013-01-03 12:15:00
6:35 AM,17.6,14.0,86,29.96,5.0,West,6.9,-,N/A,Snow,Light Snow,280,2013-01-03 12:35:00
6:55 AM,17.6,14.0,86,29.96,5.0,West,5.8,-,N/A,,Overcast,270,2013-01-03 12:55:00
7:15 AM,17.6,14.0,86,29.96,5.0,West,5.8,-,N/A,,Overcast,280,2013-01-03 13:15:00
7:35 AM,17.6,14.0,86,29.96,4.0,WNW,5.8,-,N/A,,Overcast,290,2013-01-03 13:35:00
7:55 AM,19.4,15.8,86,29.97,4.0,West,5.8,-,N/A,,Overcast,280,2013-01-03 13:55:00
8:15 AM,19.4,15.8,86,29.97,4.0,West,6.9,-,N/A,,Overcast,270,2013-01-03 14:15:00
8:35 AM,19.4,15.8,86,29.98,4.0,West,6.9,-,N/A,,Overcast,270,2013-01-03 14:35:00
8:55 AM,19.4,15.8,86,29.99,4.0,West,6.9,-,N/A,,Overcast,270,2013-01-03 14:55:00
9:15 AM,19.4,15.8,86,30.00,4.0,West,6.9,-,N/A,,Overcast,280,2013-01-03 15:15:00
9:35 AM,19.4,17.6,93,30.00,4.0,WNW,4.6,-,N/A,,Overcast,290,2013-01-03 15:35:00
9:55 AM,19.4,17.6,93,30.01,4.0,West,5.8,-,N/A,,Overcast,270,2013-01-03 15:55:00
10:15 AM,21.2,17.6,86,30.01,4.0,West,5.8,-,N/A,Snow,Light Snow,280,2013-01-03 16:15:00
10:35 AM,21.2,17.6,86,30.01,4.0,West,8.1,-,N/A,Snow,Light Snow,280,2013-01-03 16:35:00
10:55 AM,21.2,17.6,86,30.01,7.0,WNW,11.5,-,N/A,Snow,Light Snow,290,2013-01-03 16:55:00
11:15 AM,21.2,17.6,86,30.01,10.0,NW,12.7,-,N/A,Snow,Light Snow,320,2013-01-03 17:15:00
11:35 AM,21.2,17.6,86,30.01,7.0,NW,13.8,17.3,N/A,Snow,Light Snow,310,2013-01-03 17:35:00
11:55 AM,21.2,15.8,80,30.01,7.0,NW,13.8,-,N/A,Snow,Light Snow,310,2013-01-03 17:55:00
12:15 PM,21.2,15.8,80,30.00,7.0,West,10.4,16.1,N/A,Snow,Light Snow,280,2013-01-03 18:15:00
12:35 PM,21.2,14.0,74,30.00,10.0,WNW,10.4,-,N/A,Snow,Light Snow,290,2013-01-03 18:35:00
12:55 PM,21.2,14.0,74,30.00,10.0,West,10.4,-,N/A,Snow,Light Snow,280,2013-01-03 18:55:00
1:15 PM,21.2,14.0,74,30.00,10.0,WNW,11.5,-,N/A,,Overcast,290,2013-01-03 19:15:00
1:35 PM,21.2,14.0,74,29.99,10.0,WNW,6.9,-,N/A,,Overcast,290,2013-01-03 19:35:00
1:55 PM,21.2,12.2,68,29.99,10.0,West,10.4,-,N/A,,Overcast,280,2013-01-03 19:55:00
2:15 PM,21.2,12.2,68,29.99,10.0,West,6.9,-,N/A,,Mostly Cloudy,270,2013-01-03 20:15:00
2:35 PM,21.2,12.2,68,29.99,10.0,WSW,10.4,-,N/A,,Mostly Cloudy,250,2013-01-03 20:35:00
2:55 PM,21.2,12.2,68,29.99,10.0,WSW,9.2,-,N/A,,Scattered Clouds,250,2013-01-03 20:55:00
3:15 PM,19.4,12.2,74,29.99,10.0,WSW,10.4,-,N/A,,Scattered Clouds,240,2013-01-03 21:15:00
3:35 PM,21.2,12.2,68,30.00,10.0,West,8.1,-,N/A,,Scattered Clouds,270,2013-01-03 21:35:00
3:55 PM,21.2,12.2,68,29.99,10.0,WSW,10.4,-,N/A,,Clear,250,2013-01-03 21:55:00
4:15 PM,19.4,12.2,74,29.99,10.0,WSW,9.2,-,N/A,,Clear,250,2013-01-03 22:15:00
4:35 PM,19.4,12.2,74,29.99,10.0,WSW,11.5,-,N/A,,Clear,250,2013-01-03 22:35:00
5:15 PM,17.6,12.2,79,29.99,10.0,WSW,15.0,-,N/A,,Clear,250,2013-01-03 23:15:00
5:35 PM,17.6,12.2,79,29.99,10.0,WSW,12.7,-,N/A,,Clear,240,2013-01-03 23:35:00
5:55 PM,17.6,12.2,79,29.97,10.0,WSW,12.7,-,N/A,,Clear,240,2013-01-03 23:55:00
6:15 PM,17.6,12.2,79,29.98,10.0,WSW,15.0,19.6,N/A,,Scattered Clouds,250,2013-01-04 00:15:00
6:35 PM,15.8,10.4,79,29.97,10.0,WSW,13.8,-,N/A,,Scattered Clouds,240,2013-01-04 00:35:00
6:55 PM,15.8,10.4,79,29.96,10.0,SW,17.3,-,N/A,,Clear,230,2013-01-04 00:55:00
7:15 PM,14.0,10.4,86,29.95,10.0,SW,13.8,-,N/A,,Clear,230,2013-01-04 01:15:00
7:35 PM,14.0,10.4,86,29.95,10.0,WSW,15.0,20.7,N/A,,Clear,240,2013-01-04 01:35:00
7:55 PM,14.0,10.4,86,29.95,10.0,WSW,12.7,20.7,N/A,,Clear,240,2013-01-04 01:55:00
8:15 PM,14.0,8.6,79,29.96,10.0,WSW,12.7,20.7,N/A,,Clear,240,2013-01-04 02:15:00
8:35 PM,14.0,8.6,79,29.94,10.0,WSW,12.7,18.4,N/A,,Clear,240,2013-01-04 02:35:00
8:55 PM,14.0,8.6,79,29.93,10.0,SW,10.4,17.3,N/A,,Clear,230,2013-01-04 02:55:00
9:15 PM,14.0,8.6,79,29.91,10.0,SW,13.8,19.6,N/A,,Clear,230,2013-01-04 03:15:00
9:35 PM,14.0,6.8,73,29.91,10.0,WSW,11.5,18.4,N/A,,Clear,240,2013-01-04 03:35:00
9:55 PM,14.0,6.8,73,29.90,10.0,WSW,10.4,20.7,N/A,,Clear,240,2013-01-04 03:55:00
10:15 PM,14.0,8.6,79,29.89,10.0,WSW,16.1,19.6,N/A,,Clear,240,2013-01-04 04:15:00
10:35 PM,14.0,8.6,79,29.88,10.0,WSW,17.3,24.2,N/A,,Clear,240,2013-01-04 04:35:00
10:55 PM,14.0,8.6,79,29.87,10.0,WSW,18.4,27.6,N/A,,Clear,240,2013-01-04 04:55:00
11:15 PM,14.0,8.6,79,29.86,10.0,WSW,17.3,25.3,N/A,,Clear,240,2013-01-04 05:15:00
11:35 PM,14.0,8.6,79,29.86,10.0,WSW,16.1,21.9,N/A,,Clear,250,2013-01-04 05:35:00
11:55 PM,12.2,8.6,85,29.85,10.0,WSW,17.3,25.3,N/A,,Clear,240,2013-01-04 05:55:00